Location: Dompnac
(44.5644°N, 4.1026°E)
Time: 01:45:42
(UTC+00:00)

USA 234 - Pass Details

Date: 25 January 2021
Orbit: 1100 x 1107 km, 123.0° (Epoch: 01 March)

Event Time Altitude Azimuth Distance (km) Brightness Sun altitude
Exits shadow 18:32:15 23° 47° (NE) 2,132 4.3 -19.4°
Maximum altitude 18:34:55 31° 9° (N) 1,816 4.2 -19.9°
Drops below altitude 10° 18:40:30 10° 310° (NW) 2,967 6.1 -20.8°
Sets 18:43:15 0° 301° (WNW) 3,927 7.0 -21.3°
